Location: Hurecourt
(47.9030°N, 6.0653°E)
Time: 04:26:17
(UTC+00:00)

Cosmos 2322 Rocket - Pass Details

Date: 14 July 2020
Orbit: 832 x 851 km, 71.0° (Epoch: 06 August)

Event Time Altitude Azimuth Distance (km) Brightness Sun altitude
Rises 02:43:27 0° 335° (NNW) 3,406 5.7 -9.4°
Reaches altitude 10° 02:45:59 10° 340° (NNW) 2,470 5.0 -9.1°
Maximum altitude 02:51:30 51° 56° (NE) 1,059 3.3 -8.5°
Drops below altitude 10° 02:57:01 10° 132° (SE) 2,468 4.7 -7.9°
Sets 02:59:32 0° 138° (SE) 3,402 5.3 -7.6°
